VLG412U EGPH-LEBL

Flight info

Callsign VLG412U
Flight time N/A
Altitude 37000
Route GOSAM P600 FENIK L612 ELBUS DCT NAVSO DCT AKOMU DCT VAMEB UL612 HON DCT SITET DCT ETRAT DCT DVL DCT LGL DCT SORAP DCT BENAR DCT VANAD DCT AMB DCT SOPIL DCT BALAN DCT EVPOK DCT NARAK DCT GAI DCT LOMRA DCT ROCAN DCT PUMAL
Aircraft A320/M-SDE3FGHIRWY/LB1

Departure

Time 2026-05-06 10:20
Airport Edinburgh Airport (EGPH)

Arrival

Time N/A
Airport Josep Tarradellas Barcelona-El Prat Airport (LEBL)
Time Latitude Longitude Altitude Speed Heading
2026-05-06 10:05 55.94880 -3.36548 116 ft 0 kts 148°
2026-05-06 10:09 55.94881 -3.36548 116 ft 1 kts 148°
2026-05-06 10:10 55.94902 -3.36570 112 ft 4 kts 156°
2026-05-06 10:10 55.94927 -3.36585 112 ft 4 kts 176°
2026-05-06 10:10 55.94951 -3.36578 114 ft 4 kts 225°
2026-05-06 10:10 55.94956 -3.36567 113 ft 1 kts 239°
2026-05-06 10:11 55.94958 -3.36562 113 ft 0 kts 239°
2026-05-06 10:13 55.94957 -3.36566 113 ft 1 kts 239°
2026-05-06 10:13 55.94947 -3.36594 112 ft 4 kts 239°
2026-05-06 10:14 55.94929 -3.36647 113 ft 6 kts 239°
2026-05-06 10:14 55.94903 -3.36725 112 ft 8 kts 239°
2026-05-06 10:14 55.94902 -3.36809 112 ft 8 kts 311°
2026-05-06 10:14 55.94924 -3.36898 113 ft 10 kts 252°
2026-05-06 10:15 55.94887 -3.37014 114 ft 12 kts 239°
2026-05-06 10:15 55.94840 -3.37152 115 ft 14 kts 239°
2026-05-06 10:15 55.94784 -3.37313 113 ft 17 kts 239°
2026-05-06 10:15 55.94720 -3.37501 114 ft 19 kts 239°
2026-05-06 10:16 55.94648 -3.37717 114 ft 21 kts 239°
2026-05-06 10:16 55.94566 -3.37960 115 ft 24 kts 239°
2026-05-06 10:16 55.94481 -3.38208 113 ft 20 kts 236°
2026-05-06 10:16 55.94415 -3.38403 113 ft 18 kts 239°
2026-05-06 10:17 55.94349 -3.38597 114 ft 18 kts 239°
2026-05-06 10:17 55.94283 -3.38789 115 ft 14 kts 239°
2026-05-06 10:17 55.94288 -3.38866 114 ft 5 kts 319°
2026-05-06 10:17 55.94320 -3.38901 113 ft 7 kts 329°
2026-05-06 10:18 55.94371 -3.38956 114 ft 11 kts 329°
2026-05-06 10:18 55.94425 -3.38941 113 ft 1 kts 51°
2026-05-06 10:18 55.94431 -3.38926 114 ft 0 kts 57°
2026-05-06 10:19 55.94432 -3.38921 114 ft 1 kts 57°
2026-05-06 10:19 55.94473 -3.38803 113 ft 37 kts 58°
2026-05-06 10:19 55.94733 -3.38037 111 ft 103 kts 59°
2026-05-06 10:20 55.95191 -3.36688 115 ft 150 kts 59°
2026-05-06 10:20 55.95742 -3.35034 635 ft 154 kts 59°
2026-05-06 10:20 55.96389 -3.33541 1330 ft 153 kts 44°
2026-05-06 10:20 55.97181 -3.32259 1958 ft 157 kts 44°
2026-05-06 10:21 55.98019 -3.30933 2462 ft 165 kts 44°
2026-05-06 10:21 55.98886 -3.29534 2999 ft 169 kts 44°
2026-05-06 10:21 55.99828 -3.28239 3559 ft 174 kts 27°
2026-05-06 10:21 56.01023 -3.27935 4132 ft 179 kts 351°
2026-05-06 10:22 56.02138 -3.28901 4740 ft 181 kts 322°
2026-05-06 10:22 56.02975 -3.30579 5325 ft 183 kts 302°
2026-05-06 10:22 56.03380 -3.32720 5941 ft 184 kts 276°
2026-05-06 10:22 56.03226 -3.34973 6581 ft 183 kts 257°
2026-05-06 10:23 56.02873 -3.37215 7008 ft 193 kts 256°
2026-05-06 10:23 56.02487 -3.39536 7409 ft 202 kts 255°
2026-05-06 10:23 56.02074 -3.41981 7861 ft 209 kts 255°
2026-05-06 10:23 56.01649 -3.44533 8311 ft 220 kts 255°
2026-05-06 10:24 56.01206 -3.47258 8742 ft 236 kts 256°
2026-05-06 10:24 56.00748 -3.50107 9429 ft 242 kts 256°
2026-05-06 10:24 56.00272 -3.53079 9995 ft 257 kts 256°
2026-05-06 10:24 55.99766 -3.56257 10405 ft 274 kts 256°
2026-05-06 10:25 55.99217 -3.59606 10881 ft 287 kts 255°
2026-05-06 10:25 55.98646 -3.63095 11392 ft 298 kts 255°
2026-05-06 10:25 55.97990 -3.66653 12027 ft 305 kts 245°
2026-05-06 10:25 55.96641 -3.69568 12794 ft 311 kts 218°
2026-05-06 10:26 55.94659 -3.71138 13578 ft 317 kts 195°
2026-05-06 10:26 55.92448 -3.71545 14294 ft 322 kts 187°
2026-05-06 10:26 55.90196 -3.71823 14782 ft 331 kts 188°
2026-05-06 10:26 55.87834 -3.72169 14945 ft 349 kts 188°
2026-05-06 10:27 55.85394 -3.72543 15385 ft 356 kts 188°
2026-05-06 10:27 55.82912 -3.72916 15964 ft 360 kts 188°
2026-05-06 10:27 55.80402 -3.73284 16534 ft 363 kts 188°
2026-05-06 10:27 55.77874 -3.73648 17115 ft 366 kts 188°
2026-05-06 10:28 55.75323 -3.74009 17697 ft 369 kts 188°
2026-05-06 10:28 55.72747 -3.74370 18265 ft 373 kts 188°
2026-05-06 10:28 55.70149 -3.74733 18766 ft 376 kts 188°
2026-05-06 10:28 55.67533 -3.75097 19309 ft 378 kts 188°
2026-05-06 10:29 55.64905 -3.75460 19840 ft 381 kts 188°
2026-05-06 10:29 55.62251 -3.75827 20379 ft 383 kts 188°
2026-05-06 10:29 55.59585 -3.76198 20895 ft 386 kts 188°
2026-05-06 10:29 55.56897 -3.76573 21399 ft 388 kts 188°
2026-05-06 10:30 55.54205 -3.76950 21897 ft 391 kts 188°
2026-05-06 10:30 55.51488 -3.77330 22373 ft 393 kts 188°
2026-05-06 10:30 55.48755 -3.77712 22841 ft 395 kts 188°
2026-05-06 10:30 55.45994 -3.78097 23286 ft 398 kts 188°
2026-05-06 10:31 55.43222 -3.78480 23712 ft 401 kts 188°
2026-05-06 10:31 55.40433 -3.78864 24083 ft 404 kts 188°
2026-05-06 10:31 55.37621 -3.79248 24465 ft 406 kts 188°
2026-05-06 10:31 55.34792 -3.79635 24843 ft 409 kts 188°
2026-05-06 10:32 55.31945 -3.80027 25203 ft 411 kts 188°
2026-05-06 10:32 55.29084 -3.80422 25573 ft 414 kts 188°
2026-05-06 10:32 55.26202 -3.80796 25929 ft 417 kts 185°
2026-05-06 10:32 55.23282 -3.80555 26283 ft 424 kts 175°
2026-05-06 10:33 55.20388 -3.79409 26613 ft 430 kts 165°
2026-05-06 10:33 55.17613 -3.77355 26970 ft 436 kts 156°
2026-05-06 10:33 55.14894 -3.74982 27318 ft 438 kts 156°
2026-05-06 10:33 55.12157 -3.72619 27683 ft 440 kts 156°
2026-05-06 10:34 55.09399 -3.70255 28037 ft 443 kts 157°
2026-05-06 10:34 55.06659 -3.67919 28391 ft 445 kts 157°
2026-05-06 10:34 55.03873 -3.65549 28737 ft 447 kts 157°
2026-05-06 10:34 55.01067 -3.63161 29084 ft 450 kts 157°
2026-05-06 10:35 54.98250 -3.60759 29426 ft 452 kts 157°
2026-05-06 10:35 54.95425 -3.58349 29800 ft 453 kts 157°
2026-05-06 10:35 54.92605 -3.55943 30293 ft 451 kts 157°
2026-05-06 10:35 54.89793 -3.53553 30719 ft 449 kts 157°
2026-05-06 10:36 54.86983 -3.51176 31129 ft 448 kts 157°
2026-05-06 10:36 54.84182 -3.48812 31534 ft 448 kts 157°
2026-05-06 10:36 54.81380 -3.46450 31936 ft 447 kts 157°
2026-05-06 10:36 54.78605 -3.44114 32343 ft 447 kts 157°
2026-05-06 10:37 54.75826 -3.41773 32748 ft 446 kts 157°
2026-05-06 10:37 54.73036 -3.39423 33169 ft 446 kts 157°
2026-05-06 10:37 54.70247 -3.37077 33571 ft 445 kts 157°
2026-05-06 10:37 54.67466 -3.34740 34006 ft 445 kts 157°
2026-05-06 10:38 54.64683 -3.32403 34340 ft 444 kts 157°
2026-05-06 10:38 54.61949 -3.30114 34654 ft 444 kts 157°
2026-05-06 10:38 54.59168 -3.27789 34959 ft 444 kts 157°
2026-05-06 10:38 54.56380 -3.25465 35260 ft 444 kts 157°
2026-05-06 10:39 54.53601 -3.23149 35539 ft 444 kts 157°
2026-05-06 10:39 54.50816 -3.20831 35808 ft 444 kts 157°
2026-05-06 10:39 54.48034 -3.18522 36110 ft 444 kts 157°
2026-05-06 10:39 54.45255 -3.16220 36393 ft 443 kts 157°
2026-05-06 10:40 54.42479 -3.13921 36680 ft 443 kts 157°
2026-05-06 10:40 54.39704 -3.11630 36948 ft 443 kts 157°
2026-05-06 10:40 54.36921 -3.09342 37049 ft 445 kts 157°
2026-05-06 10:40 54.34115 -3.07045 37065 ft 450 kts 157°
2026-05-06 10:41 54.28424 -3.02410 37069 ft 454 kts 157°
2026-05-06 10:41 54.22727 -2.97738 37066 ft 454 kts 157°
2026-05-06 10:42 54.17023 -2.93073 37064 ft 454 kts 157°
2026-05-06 10:42 54.11305 -2.88716 37065 ft 453 kts 160°
2026-05-06 10:43 54.05492 -2.84610 37072 ft 453 kts 160°
2026-05-06 10:44 53.96773 -2.78411 37082 ft 453 kts 160°
2026-05-06 10:44 53.90975 -2.74195 37073 ft 453 kts 159°
2026-05-06 10:45 53.85172 -2.69971 37068 ft 454 kts 159°
2026-05-06 10:45 53.79368 -2.65797 37073 ft 454 kts 160°
2026-05-06 10:46 53.73547 -2.61644 37078 ft 454 kts 160°
2026-05-06 10:46 53.67733 -2.57504 37072 ft 453 kts 160°
2026-05-06 10:47 53.61925 -2.53365 37085 ft 453 kts 160°
2026-05-06 10:47 53.56123 -2.49225 37090 ft 452 kts 160°
2026-05-06 10:48 53.50368 -2.45157 37089 ft 452 kts 160°
2026-05-06 10:48 53.44564 -2.41061 37089 ft 452 kts 160°
2026-05-06 10:49 53.38764 -2.36981 37075 ft 452 kts 160°
2026-05-06 10:49 53.32965 -2.32905 37075 ft 452 kts 160°
2026-05-06 10:50 53.27159 -2.28844 37076 ft 452 kts 160°
2026-05-06 10:50 53.21353 -2.24806 37067 ft 452 kts 160°
2026-05-06 10:51 53.15545 -2.20771 37075 ft 452 kts 160°
2026-05-06 10:51 53.09788 -2.16765 37082 ft 452 kts 160°
2026-05-06 10:52 53.03982 -2.12744 37087 ft 452 kts 160°
2026-05-06 10:52 52.98180 -2.08755 37070 ft 451 kts 160°
2026-05-06 10:53 52.92376 -2.04760 37075 ft 451 kts 160°
2026-05-06 10:53 52.86706 -2.00875 37072 ft 451 kts 160°
2026-05-06 10:54 52.80903 -1.96911 37070 ft 451 kts 160°
2026-05-06 10:54 52.75102 -1.92960 37076 ft 450 kts 160°
2026-05-06 10:55 52.69313 -1.89016 37064 ft 450 kts 160°
2026-05-06 10:55 52.63521 -1.85089 37065 ft 450 kts 160°
2026-05-06 10:56 52.57723 -1.81171 37068 ft 450 kts 160°
2026-05-06 10:56 52.51931 -1.77279 37069 ft 450 kts 160°
2026-05-06 10:57 52.46122 -1.73387 37063 ft 450 kts 160°
2026-05-06 10:57 52.40332 -1.69503 37066 ft 450 kts 160°
2026-05-06 10:58 52.35503 -1.66265 37077 ft 451 kts 159°
2026-05-06 10:58 52.29785 -1.62040 37074 ft 452 kts 156°
2026-05-06 10:59 52.24139 -1.57518 37042 ft 452 kts 155°
2026-05-06 10:59 52.18482 -1.53024 37049 ft 452 kts 156°
2026-05-06 11:00 52.12804 -1.48643 37047 ft 451 kts 157°
2026-05-06 11:00 52.07130 -1.44314 37046 ft 451 kts 156°
2026-05-06 11:01 52.01460 -1.39979 37041 ft 450 kts 156°
2026-05-06 11:01 51.95794 -1.35645 37045 ft 450 kts 156°
2026-05-06 11:02 51.90131 -1.31320 37047 ft 450 kts 156°
2026-05-06 11:02 51.84466 -1.27011 37047 ft 450 kts 156°
2026-05-06 11:03 51.78802 -1.22721 37035 ft 450 kts 156°
2026-05-06 11:03 51.73135 -1.18439 37012 ft 450 kts 156°
2026-05-06 11:04 51.67473 -1.14175 37009 ft 450 kts 156°
2026-05-06 11:04 51.61796 -1.09915 37011 ft 450 kts 157°
2026-05-06 11:05 51.56122 -1.05657 37007 ft 450 kts 157°
2026-05-06 11:05 51.50444 -1.01410 37009 ft 450 kts 156°
2026-05-06 11:06 51.44760 -0.97168 37013 ft 451 kts 157°
2026-05-06 11:06 51.39066 -0.92934 37007 ft 451 kts 156°
2026-05-06 11:07 51.33374 -0.88719 37013 ft 451 kts 157°
2026-05-06 11:07 51.27711 -0.84533 37014 ft 451 kts 157°
2026-05-06 11:08 51.21978 -0.80305 37020 ft 452 kts 157°
2026-05-06 11:08 51.16261 -0.76100 37020 ft 452 kts 157°
2026-05-06 11:09 51.10586 -0.71943 37021 ft 452 kts 157°
2026-05-06 11:09 51.04911 -0.67801 37014 ft 452 kts 157°
2026-05-06 11:10 50.99190 -0.63624 37004 ft 452 kts 156°
2026-05-06 11:10 50.93482 -0.59467 37002 ft 452 kts 157°
2026-05-06 11:11 50.87763 -0.55324 36997 ft 452 kts 156°
2026-05-06 11:11 50.82048 -0.51193 36989 ft 452 kts 157°
2026-05-06 11:12 50.76328 -0.47062 36991 ft 452 kts 156°
2026-05-06 11:12 50.70607 -0.42943 36995 ft 452 kts 157°
2026-05-06 11:13 50.64919 -0.38865 36993 ft 452 kts 157°
2026-05-06 11:13 50.59152 -0.34742 37000 ft 452 kts 156°
2026-05-06 11:14 50.53462 -0.30676 37001 ft 452 kts 157°
2026-05-06 11:14 50.47730 -0.26584 37003 ft 452 kts 157°
2026-05-06 11:15 50.41999 -0.22516 36997 ft 452 kts 157°
2026-05-06 11:15 50.36263 -0.18462 37004 ft 452 kts 157°
2026-05-06 11:16 50.30543 -0.14400 37005 ft 452 kts 157°
2026-05-06 11:16 50.24817 -0.10351 37007 ft 451 kts 156°
2026-05-06 11:17 50.19082 -0.06335 36997 ft 451 kts 157°
2026-05-06 11:17 50.13356 -0.02335 37012 ft 451 kts 157°
2026-05-06 11:18 50.07500 0.01028 37004 ft 448 kts 167°
2026-05-06 11:18 50.01472 0.03413 37004 ft 446 kts 167°
2026-05-06 11:19 49.95446 0.05771 37000 ft 446 kts 166°
2026-05-06 11:19 49.89435 0.08131 37001 ft 446 kts 167°
2026-05-06 11:20 49.83425 0.10484 36997 ft 446 kts 167°
2026-05-06 11:20 49.77444 0.12816 36990 ft 446 kts 167°
2026-05-06 11:21 49.71390 0.15169 36982 ft 446 kts 167°
2026-05-06 11:21 49.65412 0.17499 36984 ft 446 kts 167°
2026-05-06 11:22 49.59400 0.19903 36988 ft 446 kts 166°
2026-05-06 11:22 49.53386 0.22337 36991 ft 447 kts 166°
2026-05-06 11:23 49.47366 0.24760 36975 ft 446 kts 166°
2026-05-06 11:23 49.41349 0.27159 36975 ft 447 kts 166°
2026-05-06 11:24 49.35325 0.29563 36979 ft 448 kts 166°
2026-05-06 11:24 49.29295 0.31976 36979 ft 448 kts 166°
2026-05-06 11:25 49.23279 0.34517 36980 ft 448 kts 165°
2026-05-06 11:25 49.17272 0.37109 36974 ft 449 kts 165°
2026-05-06 11:26 49.11259 0.39670 36975 ft 449 kts 165°
2026-05-06 11:26 49.05235 0.42180 36970 ft 449 kts 165°
2026-05-06 11:27 48.99211 0.44685 36973 ft 449 kts 166°
2026-05-06 11:27 48.93183 0.47190 36974 ft 449 kts 166°
2026-05-06 11:28 48.87186 0.49683 36977 ft 449 kts 166°
2026-05-06 11:28 48.81158 0.52179 36977 ft 449 kts 165°
2026-05-06 11:29 48.75142 0.54629 37295 ft 447 kts 167°
2026-05-06 11:29 48.72132 0.55804 37566 ft 447 kts 167°
2026-05-06 11:29 48.69124 0.56964 37830 ft 446 kts 167°
2026-05-06 11:29 48.66111 0.58124 37945 ft 447 kts 167°
2026-05-06 11:30 48.63092 0.59290 37959 ft 447 kts 167°
2026-05-06 11:30 48.57074 0.61628 37963 ft 446 kts 167°
2026-05-06 11:31 48.51056 0.63971 37959 ft 447 kts 167°
2026-05-06 11:31 48.45052 0.66394 37960 ft 447 kts 166°
2026-05-06 11:32 48.39044 0.68863 37955 ft 448 kts 166°
2026-05-06 11:32 48.33035 0.71315 37959 ft 448 kts 167°
2026-05-06 11:33 48.27009 0.73747 37967 ft 448 kts 166°
2026-05-06 11:33 48.20987 0.76159 37960 ft 448 kts 166°
2026-05-06 11:34 48.14951 0.78527 37968 ft 448 kts 167°
2026-05-06 11:34 48.08913 0.80886 37971 ft 448 kts 166°
2026-05-06 11:35 48.02875 0.83241 37972 ft 449 kts 166°
2026-05-06 11:35 47.96834 0.85596 37959 ft 448 kts 167°
2026-05-06 11:36 47.90803 0.87963 37971 ft 448 kts 167°
2026-05-06 11:36 47.84778 0.90307 37960 ft 448 kts 167°
2026-05-06 11:37 47.78749 0.92637 37968 ft 448 kts 166°
2026-05-06 11:37 47.72716 0.94969 37958 ft 448 kts 167°
2026-05-06 11:38 47.66679 0.97300 37965 ft 448 kts 167°
2026-05-06 11:38 47.60691 0.99610 37947 ft 447 kts 166°
2026-05-06 11:39 47.54673 1.01934 37949 ft 447 kts 167°
2026-05-06 11:39 47.48648 1.04250 37958 ft 448 kts 167°
2026-05-06 11:40 47.42585 1.06244 37960 ft 446 kts 176°
2026-05-06 11:40 47.36394 1.06291 37950 ft 445 kts 182°
2026-05-06 11:41 47.30219 1.06156 37942 ft 445 kts 182°
2026-05-06 11:41 47.24020 1.05996 37941 ft 446 kts 182°
2026-05-06 11:42 47.17818 1.05848 37953 ft 446 kts 182°
2026-05-06 11:42 47.11599 1.05895 37933 ft 447 kts 174°
2026-05-06 11:43 47.05469 1.07102 38201 ft 441 kts 173°
2026-05-06 11:43 47.02429 1.07701 38478 ft 440 kts 174°
2026-05-06 11:43 46.99393 1.08299 38716 ft 440 kts 174°
2026-05-06 11:44 46.93315 1.09501 38927 ft 441 kts 174°
2026-05-06 11:44 46.90284 1.10100 38933 ft 441 kts 174°
2026-05-06 11:44 46.84206 1.11301 38933 ft 440 kts 174°
2026-05-06 11:45 46.79158 1.12297 38926 ft 441 kts 174°
2026-05-06 11:45 46.73040 1.13505 38928 ft 441 kts 174°
2026-05-06 11:46 46.67003 1.14684 38929 ft 441 kts 174°
2026-05-06 11:46 46.60915 1.15871 38934 ft 441 kts 174°
2026-05-06 11:47 46.54821 1.17066 38928 ft 442 kts 174°
2026-05-06 11:47 46.48723 1.18259 38935 ft 442 kts 174°
2026-05-06 11:48 46.42623 1.19446 38939 ft 443 kts 174°
2026-05-06 11:48 46.36516 1.20626 38937 ft 443 kts 174°
2026-05-06 11:49 46.30409 1.21798 38939 ft 443 kts 174°
2026-05-06 11:49 46.24308 1.22974 38941 ft 442 kts 174°
2026-05-06 11:50 46.18203 1.24161 38942 ft 442 kts 174°
2026-05-06 11:50 46.12110 1.25336 38939 ft 442 kts 174°
2026-05-06 11:51 46.06005 1.26503 38932 ft 442 kts 174°
2026-05-06 11:51 45.99900 1.27667 38940 ft 442 kts 174°
2026-05-06 11:52 45.93810 1.28837 38929 ft 442 kts 174°
2026-05-06 11:52 45.87712 1.30003 38938 ft 442 kts 174°
2026-05-06 11:53 45.81623 1.31166 38940 ft 442 kts 174°
2026-05-06 11:53 45.75529 1.32323 38935 ft 442 kts 174°
2026-05-06 11:54 45.69442 1.33479 38933 ft 442 kts 174°
2026-05-06 11:54 45.63349 1.34623 38944 ft 441 kts 174°
2026-05-06 11:55 45.57264 1.35766 38939 ft 441 kts 174°
2026-05-06 11:55 45.51175 1.36915 38946 ft 441 kts 174°
2026-05-06 11:56 45.45120 1.38350 38939 ft 443 kts 169°
2026-05-06 11:56 45.39105 1.40281 38948 ft 443 kts 169°
2026-05-06 11:57 45.33092 1.42222 38957 ft 443 kts 169°
2026-05-06 11:57 45.27081 1.44160 38959 ft 443 kts 169°
2026-05-06 11:58 45.21106 1.46069 38957 ft 443 kts 169°
2026-05-06 11:58 45.15038 1.48004 38963 ft 443 kts 170°
2026-05-06 11:59 45.09062 1.49905 38964 ft 444 kts 170°
2026-05-06 11:59 45.03037 1.51823 38965 ft 444 kts 170°
2026-05-06 12:00 44.97015 1.53740 38958 ft 444 kts 170°
2026-05-06 12:00 44.90973 1.55664 38967 ft 444 kts 170°
2026-05-06 12:01 44.84940 1.57570 38970 ft 444 kts 170°
2026-05-06 12:01 44.78899 1.59461 38974 ft 445 kts 170°
2026-05-06 12:02 44.72864 1.61352 38976 ft 444 kts 170°
2026-05-06 12:02 44.66831 1.63246 38979 ft 444 kts 170°
2026-05-06 12:03 44.60790 1.65139 38978 ft 444 kts 170°
2026-05-06 12:03 44.54763 1.67030 38973 ft 444 kts 171°
2026-05-06 12:04 44.48728 1.68919 38978 ft 444 kts 171°
2026-05-06 12:04 44.42698 1.70791 38981 ft 444 kts 171°
2026-05-06 12:05 44.36669 1.72661 38979 ft 444 kts 171°
2026-05-06 12:05 44.30647 1.74525 38983 ft 443 kts 171°
2026-05-06 12:06 44.24594 1.76157 38987 ft 442 kts 174°
2026-05-06 12:06 44.18529 1.77420 38983 ft 441 kts 175°
2026-05-06 12:07 44.12491 1.78652 38989 ft 441 kts 175°
2026-05-06 12:07 44.06421 1.79956 38993 ft 441 kts 174°
2026-05-06 12:08 44.00358 1.81308 38975 ft 441 kts 174°
2026-05-06 12:08 43.94297 1.82627 38976 ft 440 kts 176°
2026-05-06 12:09 43.88219 1.83395 38982 ft 438 kts 180°
2026-05-06 12:09 43.82129 1.83816 38984 ft 438 kts 181°
2026-05-06 12:10 43.76035 1.84279 38984 ft 438 kts 180°
2026-05-06 12:10 43.69957 1.84869 38988 ft 439 kts 179°
2026-05-06 12:11 43.63860 1.85492 38990 ft 439 kts 180°
2026-05-06 12:11 43.57774 1.86070 38982 ft 438 kts 180°
2026-05-06 12:12 43.51691 1.86640 38980 ft 439 kts 180°
2026-05-06 12:12 43.45601 1.87226 38980 ft 438 kts 180°
2026-05-06 12:13 43.39522 1.87812 38965 ft 438 kts 180°
2026-05-06 12:13 43.33449 1.88391 38981 ft 437 kts 180°
2026-05-06 12:14 43.27428 1.88967 38979 ft 436 kts 180°
2026-05-06 12:14 43.21337 1.89554 38986 ft 435 kts 180°
2026-05-06 12:15 43.15343 1.90127 38978 ft 434 kts 180°
2026-05-06 12:15 43.09322 1.90697 38984 ft 433 kts 180°
2026-05-06 12:16 43.03318 1.91265 38982 ft 432 kts 181°
2026-05-06 12:16 42.97320 1.91829 38958 ft 432 kts 181°
2026-05-06 12:17 42.91326 1.92396 38967 ft 432 kts 181°
2026-05-06 12:17 42.85327 1.92965 38973 ft 432 kts 181°
2026-05-06 12:18 42.79323 1.93529 38826 ft 434 kts 181°
2026-05-06 12:18 42.76270 1.93810 37958 ft 442 kts 181°
2026-05-06 12:18 42.73209 1.94097 37461 ft 440 kts 181°
2026-05-06 12:19 42.70177 1.94387 37085 ft 434 kts 181°
2026-05-06 12:19 42.67179 1.94684 36669 ft 430 kts 181°
2026-05-06 12:19 42.64214 1.95109 36256 ft 427 kts 179°
2026-05-06 12:19 42.61275 1.95674 35886 ft 424 kts 177°
2026-05-06 12:20 42.58381 1.96314 35481 ft 420 kts 177°
2026-05-06 12:20 42.55512 1.96972 35108 ft 415 kts 177°
2026-05-06 12:20 42.52673 1.97611 34755 ft 410 kts 178°
2026-05-06 12:20 42.49880 1.98210 34403 ft 406 kts 178°
2026-05-06 12:21 42.47100 1.98780 34045 ft 401 kts 179°
2026-05-06 12:21 42.44353 1.99329 33626 ft 397 kts 179°
2026-05-06 12:21 42.41624 1.99869 33164 ft 394 kts 179°
2026-05-06 12:21 42.38924 2.00402 32730 ft 390 kts 179°
2026-05-06 12:22 42.36253 2.00926 32205 ft 386 kts 180°